Regional Weather Roundup
Issued by NWS Little Rock, AR

Home | Current Version | Previous Version | Text Only | Print | Product List | Glossary On
Versions: 1 2 3 4 5 6 7 8 9 10 11 12 13 14 15 16 17 18 19 20 21 22 23 24 25 26 27 28 29 30 31 32 33 34 35 36 37 38 39 40 41 42 43 44 45 46 47 48 49 50
000
ASUS44 KLZK 242105
RWRLZK

WEATHER ROUNDUP FOR ARKANSAS
NATIONAL WEATHER SERVICE LITTLE ROCK AR
300 PM CST MON NOV 24 2014

NOTE: "FAIR" INDICATES FEW OR NO CLOUDS BELOW 12,000 FEET WITH NO
SIGNIFICANT WEATHER AND/OR OBSTRUCTIONS TO VISIBILITY.

ARZ001-003-010-029-242200-
NORTHWEST ARKANSAS

CITY           SKY/WX    TMP DP  RH WIND       PRES   REMARKS
FAYETTEVILLE   SUNNY     51  24  34 W16       29.90R
FORT SMITH     SUNNY     58  23  26 W24G30    29.92R
HARRISON       SUNNY     51  24  34 W14G28    29.85R
BENTONVILLE    SUNNY     52  25  35 W18       29.90R
ROGERS         SUNNY     50  25  37 W24       29.88R
SILOAM SPGS    SUNNY     52  25  35 W16G24    29.91R
HIGHFILL       SUNNY     51  25  36 W20G30    29.88R
SPRINGDALE     SUNNY     52  23  32 W24G30    29.89R
$$

ARZ004-005-016-242200-
NORTH CENTRAL ARKANSAS

CITY           SKY/WX    TMP DP  RH WIND       PRES   REMARKS
BATESVILLE     SUNNY     57  30  35 W15       29.85R
FLIPPIN        SUNNY     55  23  28 W18G31    29.85R
MTN HOME       SUNNY     53  24  32 W15G23    29.83R
$$

ARZ040-041-242200-
WEST CENTRAL ARKANSAS

CITY           SKY/WX    TMP DP  RH WIND       PRES   REMARKS
MENA           SUNNY     59  23  25 W12G20    29.96R
MOUNT IDA      SUNNY     60  20  21 NW13G25   29.92R
$$

ARZ009-017-025-026-028-242200-
NORTHEAST ARKANSAS

CITY           SKY/WX    TMP DP  RH WIND       PRES   REMARKS
CORNING        FAIR      55  32  41 W24G32    29.83R
JONESBORO      SUNNY     56  29  35 W18       29.85R
NEWPORT        SUNNY     58  32  37 SW15      29.87R
WALNUT RIDGE   SUNNY     57  27  30 W18       29.83R
BLYTHEVILLE    SUNNY     65  34  31 W13       29.87R
NW BLYTHEVILLE SUNNY     55  30  38 W14G23    29.86R
$$

ARZ022-023-033-042-044-242200-
CENTRAL ARKANSAS

CITY           SKY/WX    TMP DP  RH WIND       PRES   REMARKS
LITTLE ROCK    MOSUNNY   60  20  21 W16G24    29.92R
N LITTLE ROCK  MOSUNNY   58  26  29 W12G26    29.92R
JACKSONVILLE   SUNNY     59  25  26 W20       29.91R
SEARCY         SUNNY     58  25  28 W17G25    29.90R
HOT SPRINGS    SUNNY     60  23  24 NW8G20    29.94R
RUSSELLVILLE   SUNNY     58  22  24 W10G24    29.90R
CLINTON        FAIR      57  30  35 SW13      29.89R
$$

ARZ036-242200-
EAST ARKANSAS

CITY           SKY/WX    TMP DP  RH WIND       PRES   REMARKS
WEST MEMPHIS   SUNNY     55  35  47 VRB7G18   29.89R
$$

ARZ050-053-066-070-073-242200-
SOUTHWEST ARKANSAS

CITY           SKY/WX    TMP DP  RH WIND       PRES   REMARKS
ARKADELPHIA    FAIR      60  34  37 SW15      29.97R
CAMDEN         MOSUNNY   63  25  23 NE10      29.98R
TEXARKANA      SUNNY     61  23  23 NW14G20   30.00R
EL DORADO      MOSUNNY   58  27  30 W10       29.98R
DE QUEEN       SUNNY     61  25  25 W10       29.97R
$$

ARZ056-057-069-242200-
SOUTHEAST ARKANSAS

CITY           SKY/WX    TMP DP  RH WIND       PRES   REMARKS
PINE BLUFF     SUNNY     58  25  28 W13G23    29.94R
STUTTGART      SUNNY     59  28  31 W14       29.93R
MONTICELLO     SUNNY     59  29  31 W9G17     29.96R

$$




USA.gov is the U.S. government's official web portal to all federal, state and local government web resources and services.